Beatrice, NE

4:01 AM CST on November 24, 2017 (GMT -0600)
Beatrice Municipal

Weather History for KBIE - December, 2013

Change the Weather History Date:

Thursday, December 26, 2013

  Actual Average Record
Temperature  
Mean Temperature 34 °F -  
Max Temperature 49 °F 35 °F 65 °F (1959)
Min Temperature 20 °F 16 °F -8 °F (1948)
Degree Days  
Heating Degree Days 30    
Moisture  
Dew Point 22 °F    
Average Humidity 66    
Maximum Humidity 85    
Minimum Humidity 36    
Precipitation  
Precipitation 0.00 in - - ()
Sea Level Pressure  
Sea Level Pressure 30.19 in    
Wind  
Wind Speed 6 mph (SW)    
Max Wind Speed 12 mph    
Max Gust Speed 17 mph    
Visibility 10 miles    
Events      
Averages and records for this station are not official NWS values.
T = Trace of Precipitation, MM = Missing Value Source: NWS Daily Summary

Daily Weather History Graph

Daily Weather History Graph

Search for Another Location

Airport or City:

Trip Planner

Search our weather history database for the weather conditions in past years. The results will help you decide how hot, cold, wet, or windy it might be!

Date:

Astronomy

Dec. 26, 2013 Rise Set
Actual Time 7:48 AM CST 5:07 PM CST
Civil Twilight 7:17 AM CST 5:37 PM CST
Nautical Twilight 6:43 AM CST 6:12 PM CST
Astronomical Twilight 6:10 AM CST 6:45 PM CST
Moon 1:17 AM CST (12/26) 12:43 PM CST (12/26)
Length of Visible Light 10h 20m
Length of Day
9h 18m
Last Quarter, 38% of the Moon is Illuminated
Dec 26
Last Quarter
Jan 1
New
Jan 7
First Quarter
Jan 15
Full
Jan 23
Last Quarter

Hourly Weather History & Observations

Time (CST) Temp. Windchill Dew Point Humidity Pressure Visibility Wind Dir Wind Speed Gust Speed Precip Events Conditions
12:15 AM 21.9 °F 15.7 °F 16.7 °F 80% 30.27 in 10.0 mi SSW 4.6 mph - N/A   Clear
12:35 AM 20.8 °F 14.4 °F 16.3 °F 83% 30.27 in 10.0 mi SSW 4.6 mph - N/A   Clear
12:55 AM 22.5 °F 16.3 °F 17.6 °F 82% 30.27 in 10.0 mi South 4.6 mph - N/A   Clear
1:15 AM 21.0 °F 13.4 °F 16.5 °F 83% 30.26 in 10.0 mi South 5.8 mph - N/A   Clear
1:35 AM 23.0 °F 15.8 °F 17.6 °F 80% 30.25 in 10.0 mi South 5.8 mph - N/A   Clear
1:55 AM 22.8 °F 14.5 °F 17.4 °F 80% 30.24 in 10.0 mi SSW 6.9 mph - N/A   Clear
2:15 AM 23.7 °F 16.6 °F 18.3 °F 80% 30.23 in 10.0 mi South 5.8 mph - N/A   Clear
2:35 AM 24.3 °F 17.3 °F 17.6 °F 76% 30.23 in 10.0 mi South 5.8 mph - N/A   Clear
2:55 AM 22.5 °F 17.8 °F 17.2 °F 80% 30.22 in 10.0 mi South 3.5 mph - N/A   Clear
3:15 AM 22.8 °F 15.5 °F 17.6 °F 80% 30.22 in 10.0 mi South 5.8 mph - N/A   Clear
3:35 AM 24.6 °F 15.8 °F 19.2 °F 80% 30.22 in 10.0 mi SSW 8.1 mph - N/A   Clear
3:55 AM 25.2 °F 16.5 °F 19.8 °F 80% 30.21 in 10.0 mi South 8.1 mph - N/A   Clear
4:15 AM 26.1 °F 18.4 °F 20.1 °F 78% 30.20 in 10.0 mi SSW 6.9 mph - N/A   Clear
4:35 AM 26.4 °F 18.0 °F 20.3 °F 78% 30.19 in 10.0 mi South 8.1 mph - N/A   Clear
4:55 AM 26.2 °F 17.8 °F 20.3 °F 78% 30.17 in 10.0 mi SSW 8.1 mph - N/A   Clear
5:15 AM 25.7 °F 19.0 °F 20.1 °F 79% 30.17 in 10.0 mi South 5.8 mph - N/A   Clear
5:35 AM 25.3 °F 17.6 °F 19.4 °F 78% 30.17 in 10.0 mi South 6.9 mph - N/A   Clear
5:55 AM 25.2 °F 15.7 °F 19.6 °F 79% 30.15 in 10.0 mi SSW 9.2 mph - N/A   Clear
6:15 AM 25.5 °F 17.8 °F 19.4 °F 78% 30.15 in 10.0 mi South 6.9 mph - N/A   Clear
6:35 AM 25.9 °F 18.2 °F 19.4 °F 76% 30.15 in 10.0 mi South 6.9 mph - N/A   Clear
6:55 AM 25.9 °F 18.2 °F 19.8 °F 78% 30.14 in 10.0 mi South 6.9 mph - N/A   Clear
7:15 AM 26.8 °F 21.4 °F 20.1 °F 76% 30.14 in 10.0 mi South 4.6 mph - N/A   Clear
7:35 AM 28.2 °F 21.0 °F 20.3 °F 72% 30.14 in 10.0 mi SSW 6.9 mph - N/A   Clear
7:55 AM 28.6 °F 19.9 °F 20.5 °F 72% 30.14 in 10.0 mi SSW 9.2 mph - N/A   Clear
8:15 AM 29.1 °F 20.6 °F 21.2 °F 72% 30.14 in 10.0 mi SSW 9.2 mph - N/A   Clear
8:35 AM 30.0 °F 21.7 °F 21.6 °F 71% 30.14 in 10.0 mi SW 9.2 mph - N/A   Clear
8:55 AM 30.7 °F 22.0 °F 22.6 °F 72% 30.15 in 10.0 mi WSW 10.4 mph - N/A   Clear
9:15 AM 31.3 °F 23.9 °F 23.2 °F 72% 30.15 in 10.0 mi SW 8.1 mph - N/A   Clear
9:35 AM 32.5 °F 24.2 °F 24.1 °F 71% 30.14 in 10.0 mi SW 10.4 mph - N/A   Clear
9:55 AM 35.1 °F 27.4 °F 25.7 °F 69% 30.15 in 10.0 mi WSW 10.4 mph - N/A   Clear
10:15 AM 36.9 °F 30.1 °F 24.6 °F 61% 30.15 in 10.0 mi WSW 9.2 mph - N/A   Clear
10:35 AM 38.1 °F 31.2 °F 23.9 °F 57% 30.16 in 10.0 mi West 10.4 mph 16.1 mph N/A   Clear
10:55 AM 39.2 °F 33.0 °F 23.4 °F 53% 30.15 in 10.0 mi WSW 9.2 mph 17.3 mph N/A   Clear
11:15 AM 40.3 °F 33.4 °F 22.8 °F 50% 30.16 in 10.0 mi WNW 11.5 mph - N/A   Clear
11:35 AM 40.5 °F 34.6 °F 23.5 °F 51% 30.16 in 10.0 mi West 9.2 mph - N/A   Clear
11:55 AM 41.5 °F 35.0 °F 23.0 °F 48% 30.15 in 10.0 mi West 11.5 mph - N/A   Clear
12:15 PM 42.8 °F 37.5 °F 23.5 °F 47% 30.15 in 10.0 mi West 9.2 mph - N/A   Clear
12:35 PM 44.4 °F 39.5 °F 23.4 °F 43% 30.14 in 10.0 mi West 9.2 mph - N/A   Clear
12:55 PM 45.3 °F 41.6 °F 23.4 °F 42% 30.13 in 10.0 mi West 6.9 mph - N/A   Clear
1:15 PM 46.6 °F - 23.5 °F 40% 30.13 in 10.0 mi WSW 5.8 mph - N/A   Clear
1:35 PM 47.1 °F - 23.0 °F 39% 30.13 in 10.0 mi West 10.4 mph - N/A   Clear
1:55 PM 48.2 °F - 23.2 °F 37% 30.13 in 10.0 mi West 10.4 mph - N/A   Clear
2:15 PM 48.2 °F - 23.7 °F 38% 30.13 in 10.0 mi West 9.2 mph - N/A   Clear
2:35 PM 49.1 °F - 23.5 °F 37% 30.13 in 10.0 mi WSW 10.4 mph - N/A   Clear
2:55 PM 49.1 °F - 23.7 °F 37% 30.13 in 10.0 mi WSW 9.2 mph - N/A   Clear
3:15 PM 49.1 °F - 23.5 °F 37% 30.14 in 10.0 mi WSW 9.2 mph - N/A   Clear
3:35 PM 49.3 °F - 23.5 °F 36% 30.15 in 10.0 mi WSW 9.2 mph - N/A   Clear
3:55 PM 48.7 °F - 23.2 °F 37% 30.15 in 10.0 mi WSW 6.9 mph - N/A   Clear
4:15 PM 47.8 °F - 23.9 °F 39% 30.16 in 10.0 mi WSW 5.8 mph - N/A   Clear
4:35 PM 45.5 °F 42.5 °F 23.9 °F 43% 30.17 in 10.0 mi WSW 5.8 mph - N/A   Clear
4:55 PM 42.4 °F 38.8 °F 23.0 °F 46% 30.17 in 10.0 mi WSW 5.8 mph - N/A   Clear
5:15 PM 38.5 °F 36.1 °F 22.8 °F 53% 30.17 in 10.0 mi SW 3.5 mph - N/A   Clear
5:35 PM 37.0 °F - 22.1 °F 55% 30.18 in 10.0 mi Calm Calm - N/A   Clear
5:55 PM 36.5 °F - 22.3 °F 56% 30.18 in 10.0 mi Calm Calm - N/A   Clear
6:15 PM 35.8 °F 33.0 °F 23.0 °F 60% 30.20 in 10.0 mi SE 3.5 mph - N/A   Clear
6:35 PM 32.5 °F 27.1 °F 22.5 °F 66% 30.20 in 10.0 mi SSW 5.8 mph - N/A   Clear
6:55 PM 35.4 °F 29.7 °F 25.2 °F 66% 30.21 in 10.0 mi South 6.9 mph - N/A   Clear
7:15 PM 32.0 °F 28.7 °F 25.3 °F 76% 30.21 in 10.0 mi South 3.5 mph - N/A   Clear
7:35 PM 32.0 °F - 25.3 °F 76% 30.21 in 10.0 mi Calm Calm - N/A   Clear
7:55 PM 32.4 °F 29.1 °F 24.8 °F 74% 30.21 in 10.0 mi SSW 3.5 mph - N/A   Clear
8:15 PM 32.9 °F - 24.3 °F 71% 30.21 in 10.0 mi Calm Calm - N/A   Clear
8:35 PM 29.7 °F - 23.9 °F 79% 30.21 in 10.0 mi Calm Calm - N/A   Clear
8:55 PM 30.4 °F - 23.9 °F 77% 30.22 in 10.0 mi Calm Calm - N/A   Clear
9:15 PM 30.0 °F - 24.4 °F 80% 30.22 in 10.0 mi Calm Calm - N/A   Clear
9:35 PM 25.9 °F - 21.2 °F 82% 30.23 in 10.0 mi Calm Calm - N/A   Clear
9:55 PM 26.4 °F - 21.0 °F 80% 30.24 in 10.0 mi Calm Calm - N/A   Clear
10:15 PM 25.9 °F - 21.2 °F 82% 30.24 in 10.0 mi Calm Calm - N/A   Clear
10:35 PM 25.0 °F - 20.8 °F 84% 30.24 in 10.0 mi Calm Calm - N/A   Clear
10:55 PM 23.4 °F - 19.4 °F 85% 30.24 in 10.0 mi Calm Calm - N/A   Clear
11:15 PM 21.9 °F - 17.4 °F 83% 30.25 in 10.0 mi Calm Calm - N/A   Clear
11:30 PM 24.4 °F - 20.3 °F 84% 30.26 in 10.0 mi Calm Calm - N/A   Clear
11:55 PM 24.3 °F - 20.1 °F 84% 30.27 in 10.0 mi Calm Calm - N/A   Clear